When you browse on this site, cookies collect data to enhance your experience and personalize the content and advertising you see.
Visit our Privacy Policy to learn more. By continuing to use the site, you agree to this use of cookies and data.
  • In Schweiz
  • Länderverzeichnis
  • Für 7 Tage
  • Wassertemperatur
  • Wetterkarte
  • Widgets
  • user-avatar
    Anmelden

    Stündliche Wetter Northallerton

    Heute, 23 September, Montag

    Zeit Temperatur Niederschläge Wind Luftdruck Luftfeuchtigkeit
    00:00 +15°C° 0 mm 2 m/S 749 mmHg 96%
    01:00 +15°C° 0 mm 2 m/S 749 mmHg 96%
    02:00 +14°C° 0 mm 2 m/S 749 mmHg 96%
    03:00 +14°C° 0 mm 2 m/S 749 mmHg 96%
    04:00 +14°C° 0 mm 2 m/S 749 mmHg 96%
    05:00 +14°C° 0 mm 2 m/S 750 mmHg 96%
    06:00 +14°C° 0 mm 2 m/S 750 mmHg 98%
    07:00 +14°C° 0 mm 3 m/S 751 mmHg 92%
    08:00 +16°C° 0 mm 3 m/S 751 mmHg 86%
    09:00 +17°C° 0 mm 4 m/S 751 mmHg 80%
    10:00 +17°C° 0 mm 4 m/S 751 mmHg 75%
    11:00 +18°C° 0 mm 4 m/S 751 mmHg 69%
    12:00 +17°C° 0 mm 5 m/S 752 mmHg 63%
    13:00 +19°C° 0 mm 4 m/S 751 mmHg 62%
    14:00 +19°C° 0 mm 4 m/S 751 mmHg 61%
    15:00 +19°C° 0 mm 4 m/S 751 mmHg 59%
    16:00 +18°C° 0 mm 4 m/S 751 mmHg 64%
    17:00 +17°C° 0 mm 4 m/S 751 mmHg 69%
    18:00 +15°C° 0 mm 4 m/S 750 mmHg 73%
    19:00 +15°C° 0.1 mm 5 m/S 750 mmHg 78%
    20:00 +15°C° 0.1 mm 6 m/S 750 mmHg 82%
    21:00 +15°C° 0.1 mm 6 m/S 750 mmHg 86%
    22:00 +15°C° 0.2 mm 6 m/S 749 mmHg 88%
    23:00 +15°C° 0.2 mm 6 m/S 749 mmHg 89%

    Morgen, 24 September, Dienstag

    Zeit Temperatur Niederschläge Wind Luftdruck Luftfeuchtigkeit
    00:00 +15°C° 0.2 mm 6 m/S 749 mmHg 91%
    01:00 +15°C° 0.1 mm 5 m/S 749 mmHg 92%
    02:00 +15°C° 0.1 mm 4 m/S 748 mmHg 93%
    03:00 +14°C° 0.1 mm 4 m/S 748 mmHg 94%
    04:00 +15°C° 0 mm 4 m/S 747 mmHg 95%
    05:00 +16°C° 0 mm 3 m/S 747 mmHg 95%
    06:00 +16°C° 0 mm 3 m/S 746 mmHg 95%
    07:00 +16°C° 0 mm 3 m/S 746 mmHg 92%
    08:00 +17°C° 0 mm 3 m/S 746 mmHg 89%
    09:00 +18°C° 0 mm 3 m/S 745 mmHg 86%
    10:00 +18°C° 1 mm 3 m/S 745 mmHg 87%
    11:00 +18°C° 1 mm 3 m/S 744 mmHg 88%
    12:00 +18°C° 1 mm 2 m/S 744 mmHg 89%
    13:00 +17°C° 1.4 mm 2 m/S 744 mmHg 91%
    14:00 +17°C° 1.4 mm 2 m/S 744 mmHg 92%
    15:00 +16°C° 1.4 mm 2 m/S 743 mmHg 94%
    16:00 +16°C° 1 mm 2 m/S 743 mmHg 94%
    17:00 +16°C° 1 mm 3 m/S 743 mmHg 94%
    18:00 +14°C° 1 mm 3 m/S 743 mmHg 94%
    19:00 +14°C° 0.2 mm 3 m/S 743 mmHg 92%
    20:00 +14°C° 0.2 mm 3 m/S 744 mmHg 91%
    21:00 +13°C° 0.2 mm 3 m/S 744 mmHg 89%
    22:00 +13°C° 0.1 mm 3 m/S 744 mmHg 90%
    23:00 +14°C° 0.1 mm 2 m/S 743 mmHg 91%

    übermorgen, 25 September, Mittwoch

    Zeit Temperatur Niederschläge Wind Luftdruck Luftfeuchtigkeit
    00:00 +13°C° 0.1 mm 2 m/S 743 mmHg 93%
    01:00 +13°C° 0 mm 2 m/S 743 mmHg 94%
    02:00 +13°C° 0 mm 2 m/S 743 mmHg 94%
    03:00 +12°C° 0 mm 2 m/S 743 mmHg 95%
    04:00 +12°C° 0 mm 1 m/S 743 mmHg 96%
    05:00 +12°C° 0 mm 1 m/S 743 mmHg 96%
    06:00 +12°C° 0 mm 1 m/S 743 mmHg 97%
    07:00 +13°C° 0 mm 1 m/S 744 mmHg 94%
    08:00 +14°C° 0 mm 1 m/S 744 mmHg 91%
    09:00 +14°C° 0 mm 0 m/S 745 mmHg 89%
    10:00 +15°C° 0 mm 0 m/S 745 mmHg 86%
    11:00 +16°C° 0 mm 1 m/S 746 mmHg 82%
    12:00 +18°C° 0 mm 1 m/S 746 mmHg 79%
    13:00 +19°C° 0.1 mm 1 m/S 746 mmHg 78%
    14:00 +19°C° 0.1 mm 1 m/S 746 mmHg 76%
    15:00 +19°C° 0.1 mm 1 m/S 746 mmHg 75%
    16:00 +18°C° 0.1 mm 1 m/S 746 mmHg 79%
    17:00 +16°C° 0.1 mm 1 m/S 746 mmHg 84%
    18:00 +15°C° 0.1 mm 1 m/S 747 mmHg 89%
    19:00 +15°C° 0 mm 1 m/S 747 mmHg 90%
    20:00 +14°C° 0 mm 2 m/S 747 mmHg 92%
    21:00 +13°C° 0 mm 2 m/S 747 mmHg 93%
    22:00 +13°C° 0 mm 2 m/S 746 mmHg 93%
    23:00 +13°C° 0 mm 2 m/S 746 mmHg 93%

    26 September, Donnerstag

    Zeit Temperatur Niederschläge Wind Luftdruck Luftfeuchtigkeit
    00:00 +13°C° 0 mm 2 m/S 746 mmHg 93%
    01:00 +12°C° 0.8 mm 3 m/S 745 mmHg 94%
    02:00 +13°C° 0.8 mm 4 m/S 745 mmHg 94%
    03:00 +14°C° 0.8 mm 5 m/S 745 mmHg 95%
    04:00 +14°C° 0.1 mm 5 m/S 745 mmHg 93%
    05:00 +14°C° 0.1 mm 5 m/S 745 mmHg 92%
    06:00 +14°C° 0.1 mm 5 m/S 745 mmHg 91%
    07:00 +14°C° 0 mm 5 m/S 745 mmHg 85%
    08:00 +14°C° 0 mm 6 m/S 745 mmHg 80%
    09:00 +15°C° 0 mm 6 m/S 746 mmHg 75%
    10:00 +15°C° 0 mm 6 m/S 746 mmHg 72%
    11:00 +16°C° 0 mm 6 m/S 746 mmHg 69%
    12:00 +16°C° 0 mm 7 m/S 747 mmHg 66%
    13:00 +16°C° 0.1 mm 7 m/S 747 mmHg 66%
    14:00 +16°C° 0.1 mm 7 m/S 747 mmHg 66%
    15:00 +16°C° 0.1 mm 7 m/S 747 mmHg 66%
    16:00 +15°C° 0 mm 6 m/S 747 mmHg 70%
    17:00 +13°C° 0 mm 5 m/S 747 mmHg 74%
    18:00 +12°C° 0 mm 4 m/S 747 mmHg 77%
    19:00 +12°C° 0 mm 4 m/S 747 mmHg 78%
    20:00 +12°C° 0 mm 4 m/S 747 mmHg 79%
    21:00 +11°C° 0 mm 4 m/S 747 mmHg 80%
    22:00 +11°C° 0 mm 4 m/S 747 mmHg 80%
    23:00 +12°C° 0 mm 4 m/S 747 mmHg 80%

    27 September, Freitag

    Zeit Temperatur Niederschläge Wind Luftdruck Luftfeuchtigkeit
    00:00 +12°C° 0 mm 4 m/S 747 mmHg 81%
    01:00 +11°C° 0 mm 4 m/S 747 mmHg 83%
    02:00 +11°C° 0 mm 4 m/S 747 mmHg 85%
    03:00 +10°C° 0 mm 4 m/S 747 mmHg 88%
    04:00 +9°C° 0 mm 5 m/S 747 mmHg 87%
    05:00 +9°C° 0 mm 5 m/S 746 mmHg 87%
    06:00 +10°C° 0 mm 5 m/S 746 mmHg 87%
    07:00 +10°C° 0.2 mm 6 m/S 746 mmHg 85%
    08:00 +11°C° 0.2 mm 6 m/S 746 mmHg 83%
    09:00 +12°C° 0.2 mm 7 m/S 746 mmHg 81%
    10:00 +14°C° 0.1 mm 7 m/S 746 mmHg 79%
    11:00 +14°C° 0.1 mm 7 m/S 746 mmHg 77%
    12:00 +15°C° 0.1 mm 7 m/S 746 mmHg 74%
    13:00 +14°C° 0.3 mm 7 m/S 745 mmHg 76%
    14:00 +14°C° 0.3 mm 7 m/S 745 mmHg 78%
    15:00 +12°C° 0.3 mm 7 m/S 745 mmHg 79%
    16:00 +13°C° 0.1 mm 6 m/S 745 mmHg 81%
    17:00 +13°C° 0.1 mm 6 m/S 745 mmHg 82%
    18:00 +11°C° 0.1 mm 6 m/S 745 mmHg 83%
    19:00 +11°C° 0 mm 6 m/S 745 mmHg 84%
    20:00 +12°C° 0 mm 5 m/S 745 mmHg 85%
    21:00 +12°C° 0 mm 5 m/S 745 mmHg 85%
    22:00 +12°C° 0 mm 5 m/S 745 mmHg 85%
    23:00 +11°C° 0 mm 6 m/S 745 mmHg 85%

    28 September, Samstag

    Zeit Temperatur Niederschläge Wind Luftdruck Luftfeuchtigkeit
    00:00 +11°C° 0 mm 6 m/S 745 mmHg 85%
    01:00 +11°C° 0.3 mm 6 m/S 745 mmHg 86%
    02:00 +11°C° 0.3 mm 7 m/S 744 mmHg 87%
    03:00 +11°C° 0.3 mm 7 m/S 744 mmHg 87%
    04:00 +11°C° 0.4 mm 8 m/S 744 mmHg 86%
    05:00 +11°C° 0.4 mm 8 m/S 744 mmHg 85%
    06:00 +11°C° 0.4 mm 8 m/S 744 mmHg 84%
    07:00 +11°C° 0 mm 8 m/S 745 mmHg 82%
    08:00 +11°C° 0 mm 8 m/S 746 mmHg 79%
    09:00 +12°C° 0 mm 8 m/S 746 mmHg 77%
    10:00 +12°C° 0.1 mm 8 m/S 747 mmHg 74%
    11:00 +13°C° 0.1 mm 8 m/S 747 mmHg 71%
    12:00 +15°C° 0.1 mm 9 m/S 747 mmHg 68%
    13:00 +15°C° 0.1 mm 8 m/S 747 mmHg 69%
    14:00 +15°C° 0.1 mm 8 m/S 747 mmHg 69%
    15:00 +15°C° 0.1 mm 8 m/S 747 mmHg 69%
    16:00 +14°C° 0 mm 7 m/S 747 mmHg 73%
    17:00 +13°C° 0 mm 6 m/S 748 mmHg 78%
    18:00 +11°C° 0 mm 6 m/S 748 mmHg 82%
    19:00 +10°C° 0 mm 5 m/S 748 mmHg 84%
    20:00 +10°C° 0 mm 5 m/S 748 mmHg 86%
    21:00 +10°C° 0 mm 5 m/S 749 mmHg 88%
    22:00 +10°C° 0 mm 4 m/S 749 mmHg 89%
    23:00 +10°C° 0 mm 4 m/S 749 mmHg 90%
    Mehr zeigen